Weather History for KEWR - December, 2011

Change the Weather History Date:

Tuesday, December 20, 2011

  Actual Average Record
Temperature  
Mean Temperature 44 °F 35 °F  
Max Temperature 48 °F 42 °F 61 °F (1957)
Min Temperature 40 °F 28 °F -1 °F (1942)
Degree Days  
Heating Degree Days 21 30  
Month to date heating degree days 440 537  
Since 1 July heating degree days 1099 1405  
Cooling Degree Days 0 0  
Month to date cooling degree days 0 0  
Year to date cooling degree days 1585 1192  
Moisture  
Dew Point 32 °F    
Average Humidity 65    
Maximum Humidity 85    
Minimum Humidity 45    
Precipitation  
Precipitation 0.02 in 0.12 in 1.47 in (1957)
Month to date precipitation 2.27 2.52  
Year to date precipitation 67.67 44.96  
Snow  
Snow 0.00 in 0.20 in 4.30 in (2009)
Month to date snowfall 0.0 2.9  
Since 1 July snowfall 5.2 3.3  
Snow Depth 0.00 in    
Sea Level Pressure  
Sea Level Pressure 30.14 in    
Wind  
Wind Speed 7 mph (WNW)    
Max Wind Speed 18 mph    
Max Gust Speed 25 mph    
Visibility 10 miles    
Events Rain    
T = Trace of Precipitation, MM = Missing Value Source: NWS Daily Summary

Daily Weather History Graph

Daily Weather History Graph

Search for Another Location

Airport or City:

Trip Planner

Search our weather history database for the weather conditions in past years. The results will help you decide how hot, cold, wet, or windy it might be!

Date:

Astronomy

Dec. 20, 2011 Rise Set
Actual Time 7:16 AM EST 4:31 PM EST
Civil Twilight 6:45 AM EST 5:02 PM EST
Nautical Twilight 6:10 AM EST 5:37 PM EST
Astronomical Twilight 5:37 AM EST 6:10 PM EST
Moon 2:33 AM EST (12/20) 1:06 PM EST (12/20)
Length of Visible Light 10h 17m
Length of Day
9h 15m
Waning Crescent, 21% of the Moon is Illuminated
Dec 20
Waning Crescent
Dec 24
New
Jan 1
First Quarter
Jan 9
Full
Jan 16
Last Quarter

Hourly Weather History & Observations

Time (EST) Temp. Windchill Dew Point Humidity Pressure Visibility Wind Dir Wind Speed Gust Speed Precip Events Conditions
12:51 AM 45.0 °F 41.8 °F 28.9 °F 53% 29.99 in 10.0 mi SW 5.8 mph - N/A   Overcast
1:51 AM 46.0 °F 41.4 °F 28.9 °F 51% 29.99 in 10.0 mi WSW 9.2 mph - N/A   Overcast
2:51 AM 46.9 °F - 30.9 °F 54% 30.00 in 10.0 mi West 12.7 mph - N/A   Overcast
3:51 AM 46.9 °F - 33.1 °F 59% 30.01 in 10.0 mi West 9.2 mph - N/A   Overcast
4:51 AM 46.9 °F - 34.0 °F 61% 30.03 in 10.0 mi West 10.4 mph - N/A   Overcast
5:51 AM 46.9 °F - 35.1 °F 63% 30.05 in 10.0 mi WNW 6.9 mph - N/A   Overcast
6:51 AM 46.9 °F - 33.1 °F 59% 30.09 in 10.0 mi NW 15.0 mph - N/A   Mostly Cloudy
7:51 AM 46.4 °F 41.1 °F 30.2 °F 53% 30.13 in 10.0 mi NW 11.5 mph 21.9 mph N/A   Mostly Cloudy
8:51 AM 45.0 °F 39.3 °F 30.0 °F 56% 30.16 in 10.0 mi NNW 11.5 mph - N/A   Mostly Cloudy
9:51 AM 45.0 °F 38.5 °F 28.9 °F 53% 30.17 in 10.0 mi North 13.8 mph 21.9 mph N/A   Mostly Cloudy
10:51 AM 44.1 °F 38.1 °F 28.9 °F 55% 30.17 in 10.0 mi North 11.5 mph - N/A   Mostly Cloudy
11:51 AM 44.1 °F 38.1 °F 27.0 °F 51% 30.17 in 10.0 mi North 11.5 mph - N/A   Overcast
12:51 PM 45.0 °F 43.5 °F 28.0 °F 52% 30.16 in 10.0 mi North 3.5 mph - N/A   Mostly Cloudy
1:51 PM 46.0 °F 43.1 °F 27.0 °F 47% 30.16 in 10.0 mi NW 5.8 mph - N/A   Mostly Cloudy
2:51 PM 46.0 °F 44.8 °F 26.1 °F 46% 30.16 in 10.0 mi NNW 3.5 mph - N/A   Overcast
3:51 PM 45.0 °F - 26.1 °F 48% 30.16 in 10.0 mi Calm Calm - N/A   Overcast
4:51 PM 45.0 °F 43.5 °F 27.0 °F 49% 30.17 in 10.0 mi South 3.5 mph - N/A   Overcast
5:51 PM 45.0 °F - 26.1 °F 48% 30.18 in 10.0 mi Calm Calm - 0.00 in Rain Light Rain
6:51 PM 41.0 °F 39.0 °F 33.1 °F 73% 30.19 in 8.0 mi South 3.5 mph - 0.01 in Rain Light Rain
7:51 PM 39.2 °F 35.0 °F 35.6 °F 87% 30.20 in 10.0 mi SSW 5.8 mph - N/A Rain Light Rain
8:12 PM 39.2 °F 37.0 °F 35.6 °F 87% 30.20 in 10.0 mi SSW 3.5 mph - 0.00 in Rain Light Rain
8:51 PM 39.9 °F 36.7 °F 36.0 °F 86% 30.21 in 10.0 mi South 4.6 mph - 0.00 in Rain Light Rain
9:51 PM 41.0 °F 39.0 °F 36.0 °F 82% 30.20 in 10.0 mi SE 3.5 mph - 0.00 in Rain Light Rain
10:47 PM 41.0 °F - 37.4 °F 87% 30.19 in 10.0 mi Calm Calm - 0.00 in   Overcast
10:51 PM 41.0 °F - 37.0 °F 86% 30.19 in 10.0 mi Calm Calm - 0.00 in   Overcast
11:51 PM 42.1 °F 40.2 °F 37.0 °F 82% 30.17 in 10.0 mi ENE 3.5 mph - N/A   Overcast
11:58 PM 42.8 °F - 37.4 °F 81% 30.17 in 10.0 mi Calm Calm - N/A   Overcast